This demonstration page uses our WeatherBlox Daily Observations layout. Learn more.

Left ArrowRight Arrow

39.01783, -85.05884

Hourly Observations for February 19, 2019

Temp ( °F °C ) Dew Point ( °F °C ) Humidity (%) Winds ( mph kmh ) Pressure ( in mb ) Visibility ( mi km ) Precip ( " mm )
12:52 am 00:52 Clear 25 -3.9 18 -7.8 75 75 N 7 11 30.53 1034 10 16 0.00 0.00
1:52 am 01:52 Clear 25 -3.9 17 -8.3 72 72 N 5 7 30.54 1034 10 16 0.00 0.00
2:52 am 02:52 Mostly Cloudy 24 -4.4 18 -7.8 77 77 NNW 5 7 30.56 1035 10 16 0.00 0.00
3:52 am 03:52 Partly Cloudy 23 -5 17 -8.3 78 78 NNE 3 6 30.57 1035 10 16 0.00 0.00
4:52 am 04:52 Partly Cloudy 22 -5.6 16 -8.9 78 78 Calm 30.59 1036 9 14 0.00 0.00
5:52 am 05:52 Partly Cloudy 25 -3.9 18 -7.8 75 75 NNE 5 7 30.59 1036 10 16 0.00 0.00
6:52 am 06:52 Partly Cloudy 22 -5.6 18 -7.8 85 85 Calm 30.61 1037 8 13 0.00 0.00
7:52 am 07:52 Mostly Cloudy with Mist and Fog 24 -4.4 19 -7.2 81 81 NNE 6 9 30.61 1037 6 10 0.00 0.00
8:52 am 08:52 Mostly Cloudy 28 -2.2 20 -6.7 72 72 ENE 6 9 30.64 1038 8 13 0.00 0.00
9:52 am 09:52 Mostly Cloudy 29 -1.7 19 -7.2 66 66 ENE 6 9 30.66 1038 10 16 0.00 0.00
10:52 am 10:52 Mostly Cloudy 31 -0.6 18 -7.8 59 59 NE 8 13 30.64 1038 10 16 0.00 0.00
11:52 am 11:52 Mostly Cloudy 32 0 18 -7.8 56 56 ESE 9 15 30.62 1037 10 16 0.00 0.00
12:52 pm 12:52 Cloudy 34 1.1 19 -7.2 54 54 NE 10 17 30.58 1036 10 16 0.00 0.00
1:52 pm 13:52 Cloudy 35 1.7 19 -7.2 52 52 NE 12 19 30.53 1034 10 16 0.00 0.00
2:52 pm 14:52 Cloudy 36 2.2 19 -7.2 50 50 ENE 12 19 30.51 1033 10 16 0.00 0.00
3:52 pm 15:52 Cloudy 36 2.2 20 -6.7 52 52 ENE 12 19 30.49 1032 10 16 0.00 0.00
4:52 pm 16:52 Cloudy 35 1.7 20 -6.7 54 54 E 14 22 30.48 1032 10 16 0.00 0.00
5:52 pm 17:52 Cloudy 35 1.7 21 -6.1 57 57 E 10 17 30.47 1032 10 16 0.00 0.00
6:52 pm 18:52 Cloudy 35 1.7 22 -5.6 59 59 ENE 12 19 30.43 1031 10 16 0.00 0.00
7:52 pm 19:52 Cloudy 34 1.1 22 -5.6 61 61 E 10 17 30.44 1031 10 16 0.00 0.00
8:52 pm 20:52 Cloudy 34 1.1 20 -6.7 56 56 E 13 20 30.39 1029 10 16 0.00 0.00
9:52 pm 21:52 Cloudy 34 1.1 21 -6.1 59 59 E 10 17 30.36 1028 10 16 0.00 0.00
10:50 pm 22:50 Cloudy 34 1 21 -6 60 60 E 9 15 30.39 1029 10 16 0.00 0.03
10:52 pm 22:52 Cloudy 34 1.1 21 -6.1 59 59 E 9 15 30.37 1028 9 14 0.00 0.03
10:57 pm 22:57 Cloudy with Light Snow 34 1.1 22 -5.6 61 61 ESE 12 19 30.38 1029 9 14 0.00 0.03
11:42 pm 23:42 Cloudy 34 1.1 21 -6.1 59 59 E 8 13 30.36 1028 10 16 0.00 0.03
11:49 pm 23:49 Cloudy with Light Snow 34 1 21 -6 60 60 ESE 9 15 30.36 1028 10 16 0.00 0.03
11:52 pm 23:52 Cloudy with Light Snow 34 1.1 22 -5.6 61 61 E 9 15 30.34 1027 10 16 0.00 0.03

Powered by AerisWeather